Location: Newark
(34.9500°N, 139.9667°E)
Time: 00:33:36
(UTC+00:00)

A-11 Canister half - Visible Passes

Search period start: 16 December 2019 00:00
Search period end: 26 December 2019 00:00
Orbit: 1515 x 1684 km, 47.2° (Epoch: 14 December)

Date Brightness Start Highest point End Pass type
(mag) Time Alt. Az. Time Alt. Az. Time Alt. Az.
16 Dec 9.9 08:17:34 10° WNW 08:27:19 57° SW 08:37:10 10° SSE visible
16 Dec 11.5 10:26:57 10° W 10:30:53 13° WSW 10:34:51 10° SW visible
17 Dec 9.8 07:54:35 10° WNW 08:04:23 61° SW 08:14:20 10° SSE visible
17 Dec 11.5 10:03:15 10° W 10:08:03 14° WSW 10:12:52 10° SSW visible
18 Dec 11.5 09:39:43 10° W 09:45:12 16° WSW 09:50:43 10° SSW visible
19 Dec 11.5 09:16:17 10° W 09:22:21 18° WSW 09:28:27 10° SSW visible
20 Dec 11.5 08:52:58 10° W 08:59:30 20° SW 09:06:06 10° SSW visible
21 Dec 11.5 08:29:42 10° W 08:36:38 21° SW 08:43:41 10° S visible
22 Dec 11.5 08:06:28 10° WNW 08:13:47 23° SW 08:21:12 10° S visible
22 Dec 10.8 21:15:18 10° SSW 21:23:27 36° SE 21:31:46 10° ENE visible
23 Dec 10.8 20:52:40 10° S 21:00:37 33° SE 21:08:42 10° ENE visible
24 Dec 10.8 20:30:04 10° S 20:37:47 31° SE 20:45:37 10° ENE visible
25 Dec 10.8 20:07:29 10° S 20:14:57 28° SE 20:22:31 10° ENE visible
